[[{"header":{"parameterUnit":"m.s-1","parameterCategory":2,"la1":30.2991,"la2":30.254,"lo1":-89.0895,"lo2":-89.0444,"dy":0.0017,"dx":0.0017,"nx":28,"ny":28,"refTime":"2025-04-12T03:00:00:Z","depth":"0","parameterNumber":2,"parameterNumberName":"U-component_of_CURRENTS"},"data":[0,0,0,0,0,0,0,0,0,0,0,0,0,0,0,0,0,0,0,0,0,0,0,0,0,0,0,0,0,0,0,0,0,0,0,0,0,0,0,0,0,0,0,0,0,0,0,0,0,0,0,0,0,0,0,0,0,0,0.3092,0.3092,0,0.3113,0.3113,0.3113,0.3101,0.3101,0.31,0.31,0.3046,0.3045,0.3043,0,0,0,0,0,0,0,0,0,0,0,0,0,0.304,0.3041,0.3091,0.3092,0.3093,0.3113,0.3113,0.3113,0.3101,0.3101,0.31,0.31,0.3046,0.3045,0.3043,0,0,0,0,0,0,0,0,0,0,0,0,0,0.3058,0.3041,0.3091,0.3093,0.3093,0.3113,0.3113,0.3112,0.3101,0.3101,0.31,0.31,0.3047,0.3045,0.3043,0.3037,0,0,0.3037,0.3036,0,0,0,0,0,0,0,0,0.3057,0.3059,0.3092,0.3093,0.3093,0.3108,0.3075,0.3085,0.3101,0.3093,0.31,0.31,0.3063,0.3059,0.3059,0.3034,0.3032,0.3037,0.3036,0.3035,0.3034,0,0,0,0,0,0,0,0.3056,0.3058,0.3095,0.3093,0.3094,0.3092,0.3094,0.3077,0.3074,0.3094,0.3094,0.3104,0.3062,0.3061,0.3057,0.3031,0.3037,0.3035,0.3034,0.3033,0.3091,0.3094,0,0,0,0,0,0,0.3063,0.3057,0.3095,0.3097,0.3079,0.3094,0.3095,0.31,0.3076,0.3074,0.3104,0.3103,0.3064,0.306,0.3055,0.3116,0.3035,0.3033,0.3032,0.3089,0.3092,0.3095,0,0,0,0,0,0,0.3061,0.3065,0.3094,0.3081,0.3085,0.3095,0.31,0.31,0.3107,0.3086,0.3081,0.3112,0.3064,0.3058,0.307,0.3111,0.3032,0.3031,0.3086,0.309,0.3093,0.3193,0,0,0,0,0,0,0.3059,0.3065,0.3067,0.3081,0.3086,0.3116,0.3101,0.3101,0.3115,0.3114,0.3091,0.3085,0.3063,0.3073,0.3068,0.3107,0.3029,0.3082,0.3087,0.3092,0.3186,0.3199,0.3211,0,0,0,0,0,0.3057,0.3064,0.3067,0.3071,0.309,0.3118,0.312,0.3123,0.3116,0.3126,0.3124,0.3086,0.3102,0.3074,0.3067,0.3106,0.308,0.3086,0.3092,0.318,0.3197,0.3211,0,0,0,0,0,0,0.3045,0.3064,0.3067,0.3079,0.3103,0.3117,0.3126,0.313,0.3136,0.3134,0.3109,0.3104,0.3133,0.311,0.3079,0.3143,0.3089,0.3094,0.3159,0.3174,0.3186,0.3204,0.3028,0,0,0,0,0,0.3044,0.3051,0.3077,0.3088,0.3101,0.3115,0.3125,0.3133,0.3143,0.3145,0.3133,0.3133,0.3152,0.3154,0.3153,0.3177,0.3196,0.3204,0.3217,0.3228,0.3241,0.3321,0.3342,0.3115,0.3115,0.3115,0,0,0.3043,0.3055,0.3058,0.3085,0.31,0.3139,0.3119,0.3144,0.3176,0.3137,0.3166,0.3167,0.3169,0.3207,0.3218,0.3192,0.3307,0.3235,0.3244,0.3252,0.333,0.3352,0.3372,0.3119,0.3118,0.3117,0,0,0.3053,0.3056,0.3072,0.3098,0.3131,0.3151,0.3164,0.3188,0.3194,0.3223,0.3224,0.3262,0.3254,0.3291,0.3303,0.3386,0.3369,0.338,0.3456,0.3534,0.3553,0.357,0.3638,0.3661,0.3388,0.3388,0.3389,0,0.3054,0.3079,0.3083,0.3118,0.3145,0.3165,0.3205,0.3226,0.3251,0.3273,0.3242,0.3315,0.3304,0.34,0.3431,0.3415,0.3449,0.3394,0.3551,0.3568,0.3584,0.3649,0.3673,0.3394,0.3393,0.3393,0.3392,0,0.3087,0.3113,0.3129,0.3181,0.321,0.3247,0.3287,0.3317,0.3325,0.3352,0.3423,0.3433,0.3485,0.3494,0.348,0.3603,0.3589,0.3555,0.351,0.3613,0.3675,0.3698,0.3402,0.34,0.3398,0.3397,0,0,0.3085,0.314,0.3148,0.3181,0.3247,0.3276,0.3341,0.341,0.3461,0.3492,0.3569,0.362,0.3637,0.3656,0.3665,0.3727,0.3866,0.3691,0.3693,0.3756,0.4044,0.3933,0.3946,0.3859,0.3863,0.3867,0.4047,0,0.3117,0.3183,0.3201,0.3278,0.3325,0.3363,0.3419,0.3483,0.3525,0.3602,0.3658,0.3724,0.3699,0.3732,0.3804,0.3842,0.3928,0.382,0.3937,0.3941,0.3827,0.3969,0.3742,0.3874,0.4069,0.4072,0.4075,0,0.3155,0.3197,0.3262,0.3333,0.3353,0.3395,0.3493,0.3545,0.3662,0.3692,0.3795,0.3836,0.3965,0.3906,0.4072,0.4003,0.4045,0.4068,0.4075,0.395,0.3872,0.3801,0.3907,0.3793,0.4109,0.4107,0.4104,0,0.317,0.3242,0.3289,0.3317,0.3401,0.3428,0.3476,0.3576,0.3637,0.3769,0.3841,0.3975,0.4053,0.4139,0.4194,0.4149,0.4352,0.4293,0.4249,0.4241,0.4059,0.4027,0.4061,0.4433,0.4433,0.4432,0.4432,0,0.321,0.3252,0.3292,0.3327,0.3382,0.3433,0.3505,0.3571,0.3694,0.3785,0.3895,0.3997,0.4114,0.4234,0.4267,0.4334,0.4427,0.4301,0.4295,0.4086,0.4056,0.3952,0.3901,0.4439,0.4437,0.4436,0.4435,0,0.3227,0.3256,0.3314,0.3377,0.3391,0.3431,0.3515,0.3578,0.3692,0.3825,0.3881,0.4062,0.4186,0.4296,0.4431,0.4419,0.4354,0.4488,0.4228,0.4187,0.3979,0.3941,0.3875,0.3771,0.4471,0.447,0.4468,0,0.3234,0.3265,0.3329,0.3353,0.3374,0.3428,0.3466,0.3566,0.3637,0.3846,0.3916,0.4097,0.4178,0.4351,0.4348,0.4415,0.4313,0.4258,0.4121,0.3972,0.3929,0.3802,0.3711,0.3938,0.3933,0.3928,0.3925,0,0.3252,0.327,0.3319,0.3364,0.3392,0.3427,0.3487,0.3538,0.3662,0.3762,0.3893,0.3978,0.4121,0.4069,0.4154,0.416,0.4013,0.4165,0.409,0.359,0.3379,0.3271,0.3822,0.3885,0.3889,0.3892,0.3894,0.3896,0.3249,0.3283,0.3335,0.3366,0.3391,0.34,0.3379,0.3449,0.3512,0.3581,0.3746,0.3756,0.3804,0.3855,0.386,0.3697,0.3738,0.3569,0.3566,0.3478,0.3265,0.3723,0.3715,0.3718,0.372,0.3723,0.3725,0,0.3235,0.3282,0.3328,0.3339,0.3312,0.3345,0.3365,0.3304,0.3283,0.3367,0.3408,0.3373,0.3312,0.3346,0.3254,0.3128,0.3005,0.3045,0.282,0.2787,0.3264,0.3124,0.2889,0.2889,0.2889,0.2889,0.289,0.289,0.3237,0.3272,0.3293,0.3237,0.3219,0.3108,0.3072,0.3009,0.3008,0.29,0.2835,0.2869,0.2977,0.2941,0.2785,0.2713,0.253,0.2376,0.2457,0.2783,0.2831,0.2877,0.2733,0.2421,0.242,0.1822,0.1817,0.1814]},{"header":{"parameterUnit":"m.s-1","parameterCategory":2,"la1":30.2991,"la2":30.254,"lo1":-89.0895,"lo2":-89.0444,"dy":0.0017,"dx":0.0017,"nx":28,"ny":28,"refTime":"2025-04-12T03:00:00:Z","depth":"0","parameterNumber":3,"parameterNumberName":"V-component_of_CURRENTS"},"data":[0,0,0,0,0,0,0,0,0,0,0,0,0,0,0,0,0,0,0,0,0,0,0,0,0,0,0,0,0,0,0,0,0,0,0,0,0,0,0,0,0,0,0,0,0,0,0,0,0,0,0,0,0,0,0,0,0,0,-0.0093,-0.0093,0,-0.0148,-0.0149,-0.015,-0.0189,-0.0189,-0.0189,-0.019,-0.0234,-0.0235,-0.0236,0,0,0,0,0,0,0,0,0,0,0,0,0,-0.0055,-0.0055,-0.0093,-0.0093,-0.0094,-0.0148,-0.0149,-0.015,-0.0189,-0.0189,-0.0189,-0.019,-0.0234,-0.0235,-0.0236,0,0,0,0,0,0,0,0,0,0,0,0,0,-0.0087,-0.0055,-0.0092,-0.0119,-0.0122,-0.0148,-0.0149,-0.015,-0.0189,-0.0189,-0.019,-0.019,-0.0234,-0.0235,-0.0237,-0.0238,0,0,-0.0241,-0.0242,0,0,0,0,0,0,0,0,-0.0086,-0.0089,-0.0115,-0.0118,-0.0121,-0.0161,-0.0152,-0.0179,-0.0189,-0.0164,-0.019,-0.019,-0.0208,-0.0212,-0.0223,-0.024,-0.0242,-0.0241,-0.0242,-0.0243,-0.0243,0,0,0,0,0,0,0,-0.0083,-0.0087,-0.0115,-0.0115,-0.0119,-0.0141,-0.0145,-0.0158,-0.0184,-0.0166,-0.0169,-0.0174,-0.021,-0.0221,-0.0224,-0.0243,-0.0241,-0.0242,-0.0243,-0.0244,-0.0275,-0.0275,0,0,0,0,0,0,-0.0073,-0.0085,-0.0113,-0.0117,-0.0103,-0.0141,-0.0146,-0.0149,-0.0184,-0.019,-0.0174,-0.0176,-0.0218,-0.0222,-0.0226,-0.0218,-0.0243,-0.0244,-0.0245,-0.0275,-0.0275,-0.0275,0,0,0,0,0,0,-0.0072,-0.0075,-0.0111,-0.0102,-0.0108,-0.0141,-0.0143,-0.0149,-0.0159,-0.019,-0.0195,-0.0177,-0.0219,-0.0224,-0.0237,-0.0221,-0.0245,-0.0246,-0.0275,-0.0275,-0.0275,-0.021,0,0,0,0,0,0,-0.007,-0.0074,-0.0069,-0.0101,-0.0108,-0.0115,-0.0143,-0.015,-0.0161,-0.0164,-0.0194,-0.0199,-0.022,-0.0235,-0.0238,-0.0223,-0.0247,-0.0275,-0.0275,-0.0275,-0.0213,-0.0208,-0.0204,0,0,0,0,0,-0.0069,-0.0057,-0.0068,-0.0072,-0.0101,-0.0114,-0.0119,-0.0145,-0.0161,-0.0157,-0.0185,-0.0198,-0.0237,-0.0236,-0.024,-0.0225,-0.0275,-0.0275,-0.0275,-0.0214,-0.0209,-0.0205,0,0,0,0,0,0,-0.0038,-0.0061,-0.0074,-0.007,-0.0086,-0.012,-0.0119,-0.014,-0.0159,-0.0164,-0.0196,-0.0202,-0.021,-0.0229,-0.0227,-0.0236,-0.0258,-0.0259,-0.0211,-0.0206,-0.0202,-0.0166,-0.0248,0,0,0,0,0,-0.0028,-0.0027,-0.0053,-0.005,-0.0055,-0.0087,-0.0095,-0.0113,-0.0137,-0.0146,-0.0168,-0.0194,-0.0214,-0.0218,-0.024,-0.0239,-0.0232,-0.0235,-0.0231,-0.0227,-0.0202,-0.0175,-0.0165,-0.0274,-0.0274,-0.0274,0,0,-0.0017,-0.0029,-0.0029,-0.0043,-0.0059,-0.0054,-0.0093,-0.01,-0.0095,-0.0147,-0.0146,-0.018,-0.0213,-0.0218,-0.0222,-0.0229,-0.0196,-0.0227,-0.0223,-0.0199,-0.0174,-0.0163,-0.0153,-0.0274,-0.0274,-0.0274,0,0,0.0011,-0.0001,0.0011,0.0002,-0.0015,-0.0029,-0.0028,-0.0057,-0.0067,-0.0075,-0.0114,-0.013,-0.0162,-0.0175,-0.0188,-0.0171,-0.0179,-0.0191,-0.0132,-0.0106,-0.0096,-0.0087,-0.0073,-0.0063,-0.0183,-0.0183,-0.0183,0,0.0026,0.0039,0.0013,0.0023,0.0028,-0.0012,0.0008,-0.0007,-0.0037,-0.0033,-0.0064,-0.0093,-0.0134,-0.0119,-0.0131,-0.0156,-0.0151,-0.0146,-0.0097,-0.0088,-0.008,-0.0067,-0.0057,-0.018,-0.018,-0.0181,-0.0181,0,0.0061,0.0073,0.0081,0.0085,0.0088,0.0097,0.0078,0.0076,0.0056,0.0043,0.0048,-0.0002,-0.0009,-0.004,-0.0088,-0.0053,-0.0072,-0.0097,-0.0101,-0.0064,-0.0054,-0.0045,-0.0175,-0.0177,-0.0177,-0.0178,0,0,0.0092,0.0106,0.0109,0.013,0.0124,0.0134,0.0148,0.0161,0.0191,0.0153,0.0204,0.0135,0.0115,0.0099,0.0048,0.0051,0.0084,-0.0002,-0.0002,0.0029,0.0137,0.0099,0.0105,0.0068,0.007,0.0072,0.0118,0,0.013,0.0174,0.017,0.0218,0.0243,0.0226,0.0259,0.0263,0.0254,0.0291,0.0254,0.0273,0.0168,0.0174,0.0159,0.0108,0.0114,0.0074,0.0083,0.0084,0.0059,0.0117,0.0096,0.0133,0.0127,0.0129,0.013,0,0.0166,0.0197,0.0252,0.0306,0.0319,0.0342,0.0397,0.0417,0.0445,0.0448,0.0455,0.043,0.0428,0.0342,0.0303,0.0281,0.0217,0.0172,0.0173,0.0128,0.0064,0.0095,0.015,0.0023,0.0145,0.0143,0.0142,0,0.0206,0.0256,0.0309,0.0321,0.0373,0.0402,0.0433,0.0463,0.0517,0.0556,0.0614,0.0592,0.0618,0.054,0.0414,0.0371,0.0381,0.0316,0.023,0.0226,0.0208,0.0199,0.016,0.0313,0.0313,0.0312,0.0312,0,0.0246,0.0288,0.0333,0.036,0.0449,0.046,0.0553,0.0574,0.0655,0.0757,0.0705,0.0794,0.0669,0.0646,0.0504,0.0406,0.0456,0.0268,0.0249,0.0225,0.0218,0.0103,0.0018,0.0314,0.0314,0.0313,0.0313,0,0.0272,0.0296,0.0363,0.0433,0.0464,0.0522,0.0635,0.0713,0.0769,0.091,0.0944,0.0973,0.0945,0.0805,0.07,0.0544,0.0361,0.0385,0.0357,0.0333,0.0109,0.0027,-0.0018,-0.0065,0.0312,0.0311,0.0311,0,0.0289,0.0327,0.0415,0.0469,0.05,0.0592,0.0679,0.076,0.0862,0.1026,0.1124,0.1149,0.1185,0.1011,0.0751,0.0539,0.0388,0.0362,0.0266,0.0122,0.0017,-0.0042,-0.0082,0.0264,0.0263,0.0263,0.0262,0,0.0332,0.0358,0.0411,0.0526,0.0613,0.0732,0.086,0.0967,0.1099,0.1235,0.141,0.1457,0.1297,0.1081,0.0768,0.0598,0.0262,0.0341,0.0215,0.0006,-0.0078,-0.0141,0.0196,0.0257,0.0257,0.0258,0.0258,0.0258,0.0363,0.0407,0.0483,0.0594,0.0706,0.087,0.0981,0.1143,0.1339,0.1555,0.1597,0.1684,0.1357,0.0936,0.0688,0.0225,0.0233,0.0064,-0.0011,-0.0048,-0.0127,0.0191,0.0207,0.0207,0.0207,0.0207,0.0208,0,0.0413,0.0467,0.0561,0.0699,0.0838,0.0892,0.1113,0.1242,0.1479,0.1658,0.1799,0.1687,0.1282,0.0857,0.0232,-0.0082,-0.0187,-0.024,-0.0328,-0.0344,-0.0033,-0.0072,-0.0142,-0.0142,-0.0142,-0.0142,-0.0142,-0.0142,0.0441,0.053,0.058,0.0796,0.0904,0.1096,0.1226,0.1417,0.1575,0.1773,0.1827,0.1849,0.1519,0.0463,-0.0234,-0.0383,-0.0579,-0.0642,-0.0707,-0.052,-0.0497,-0.0476,-0.0531,-0.0697,-0.0697,-0.0982,-0.0985,-0.0987]}],[{"header":{"parameterUnit":"m.s-1","parameterCategory":2,"la1":30.2991,"la2":30.254,"lo1":-89.0895,"lo2":-89.0444,"dy":0.0017,"dx":0.0017,"nx":28,"ny":28,"refTime":"2025-04-12T03:00:00:Z","depth":"2","parameterNumber":2,"parameterNumberName":"U-component_of_CURRENTS"},"data":[0,0,0,0,0,0,0,0,0,0,0,0,0,0,0,0,0,0,0,0,0,0,0,0,0,0,0,0,0,0,0,0,0,0,0,0,0,0,0,0,0,0,0,0,0,0,0,0,0,0,0,0,0,0,0,0,0,0,0.2371,0.2371,0,0.2393,0.2393,0.2393,0.2402,0.2403,0.2403,0.2403,0.2419,0.242,0.242,0,0,0,0,0,0,0,0,0,0,0,0,0,0.235,0.235,0.2371,0.2371,0.2372,0.2393,0.2393,0.2393,0.2402,0.2403,0.2403,0.2403,0.2419,0.242,0.242,0,0,0,0,0,0,0,0,0,0,0,0,0,0.2361,0.235,0.2371,0.2381,0.2383,0.2393,0.2393,0.2393,0.2402,0.2403,0.2403,0.2403,0.2419,0.2419,0.242,0.2414,0,0,0.2421,0.2421,0,0,0,0,0,0,0,0,0.2361,0.2362,0.2379,0.2381,0.2382,0.2398,0.2392,0.2401,0.2402,0.2391,0.2403,0.2403,0.2414,0.2414,0.2413,0.2415,0.2416,0.2421,0.2421,0.2421,0.2421,0,0,0,0,0,0,0,0.236,0.2361,0.2376,0.238,0.2382,0.239,0.2392,0.2394,0.2397,0.2392,0.2394,0.2401,0.2414,0.2413,0.2414,0.2416,0.2421,0.2421,0.2421,0.2421,0.2481,0.2482,0,0,0,0,0,0,0.2363,0.236,0.2376,0.2377,0.2376,0.2391,0.2392,0.239,0.2398,0.24,0.2401,0.2402,0.2412,0.2413,0.2414,0.2484,0.2421,0.2421,0.2422,0.248,0.2481,0.2483,0,0,0,0,0,0,0.2362,0.2363,0.2375,0.2373,0.2375,0.2391,0.2388,0.239,0.2407,0.2405,0.2407,0.2418,0.2412,0.2414,0.2435,0.2482,0.2421,0.2422,0.2478,0.248,0.2482,0.2575,0,0,0,0,0,0,0.2361,0.2363,0.2371,0.2372,0.2375,0.2399,0.2388,0.2391,0.2412,0.2413,0.242,0.2421,0.2413,0.2434,0.2435,0.2481,0.2422,0.2476,0.2479,0.2481,0.257,0.258,0.2588,0,0,0,0,0,0.236,0.2368,0.2371,0.2374,0.2383,0.24,0.2403,0.2413,0.2413,0.2427,0.2431,0.2422,0.2452,0.2435,0.2436,0.2484,0.2475,0.2478,0.2481,0.2566,0.2578,0.2588,0,0,0,0,0,0,0.2366,0.237,0.2374,0.2384,0.2401,0.2403,0.2419,0.2424,0.2437,0.2442,0.2433,0.2435,0.2475,0.2459,0.2441,0.2507,0.2465,0.2468,0.2529,0.254,0.2549,0.2576,0.2422,0,0,0,0,0,0.2371,0.2377,0.2387,0.2399,0.2407,0.2415,0.2427,0.2437,0.2445,0.2452,0.2458,0.2466,0.2485,0.2496,0.2505,0.2533,0.2546,0.2565,0.2574,0.2582,0.2604,0.2684,0.2703,0.2493,0.2493,0.2493,0,0,0.2373,0.2381,0.2383,0.2401,0.2411,0.2433,0.2423,0.2448,0.2476,0.2451,0.249,0.2499,0.2499,0.254,0.2557,0.2535,0.2641,0.2586,0.2593,0.2611,0.2689,0.271,0.2729,0.2495,0.2495,0.2495,0,0,0.2384,0.2392,0.2402,0.2416,0.2444,0.2459,0.2472,0.249,0.2508,0.2538,0.2541,0.2583,0.2587,0.262,0.2629,0.2692,0.2688,0.2689,0.276,0.2837,0.2856,0.2872,0.2886,0.2904,0.2693,0.2693,0.2693,0,0.2393,0.2405,0.2411,0.2428,0.2451,0.2473,0.2501,0.2522,0.255,0.2584,0.2561,0.2627,0.2632,0.2707,0.2735,0.2719,0.2738,0.2719,0.2852,0.2869,0.2885,0.2895,0.2913,0.2698,0.2697,0.2697,0.2696,0,0.2406,0.2425,0.2435,0.2467,0.2494,0.2523,0.2556,0.2599,0.2624,0.2651,0.2726,0.2735,0.278,0.2793,0.2783,0.2901,0.2868,0.2858,0.283,0.2912,0.2916,0.2934,0.2705,0.2703,0.2702,0.27,0,0,0.2408,0.2439,0.2445,0.2468,0.252,0.2543,0.2609,0.2682,0.2739,0.2772,0.2859,0.2898,0.2917,0.2931,0.2936,0.3007,0.3125,0.2987,0.2989,0.301,0.3263,0.3133,0.3139,0.3148,0.3152,0.3155,0.3211,0,0.2426,0.2465,0.2478,0.2533,0.2565,0.261,0.2667,0.2738,0.2797,0.2888,0.2939,0.3012,0.2962,0.3006,0.3068,0.3128,0.318,0.3109,0.3172,0.3173,0.3058,0.3159,0.2907,0.2928,0.3228,0.323,0.3232,0,0.2436,0.2473,0.2518,0.2582,0.2599,0.2631,0.2749,0.2807,0.2939,0.2991,0.3078,0.3116,0.3232,0.3182,0.3298,0.3256,0.327,0.3296,0.3298,0.3164,0.3078,0.29,0.2948,0.3261,0.3258,0.3256,0.3254,0,0.2447,0.2498,0.2542,0.2559,0.2634,0.2672,0.273,0.2844,0.2924,0.3084,0.3165,0.3264,0.3335,0.3395,0.3418,0.3384,0.3541,0.3492,0.3373,0.3361,0.3152,0.3115,0.3584,0.3584,0.3584,0.3584,0.3584,0,0.246,0.2489,0.2543,0.2567,0.2634,0.2684,0.2778,0.2859,0.3007,0.3116,0.3216,0.3302,0.3403,0.3482,0.3488,0.3477,0.3584,0.3412,0.3392,0.317,0.3135,0.3427,0.3408,0.3586,0.3586,0.3585,0.3585,0,0.2439,0.2476,0.2528,0.2608,0.2635,0.2684,0.2802,0.2877,0.3015,0.3173,0.324,0.3383,0.3455,0.3513,0.3613,0.3543,0.3571,0.3535,0.3234,0.3178,0.3313,0.3298,0.341,0.3407,0.3404,0.3401,0.3399,0,0.2425,0.2457,0.2545,0.259,0.2617,0.2696,0.2756,0.2882,0.2972,0.3188,0.3264,0.3394,0.3417,0.3489,0.3442,0.3421,0.3509,0.3165,0.3054,0.3338,0.3308,0.3297,0.3287,0.28,0.2793,0.2787,0.2783,0,0.2402,0.243,0.2466,0.2583,0.2637,0.27,0.2793,0.2847,0.3003,0.3091,0.3186,0.3225,0.3288,0.3134,0.3128,0.3085,0.3149,0.3045,0.348,0.2873,0.2765,0.2733,0.2743,0.2733,0.2738,0.2742,0.2744,0.2746,0.2382,0.2381,0.245,0.2551,0.2625,0.2668,0.2652,0.2738,0.2791,0.2858,0.2983,0.293,0.2956,0.2774,0.2692,0.2639,0.2831,0.2707,0.2724,0.2747,0.2657,0.2549,0.2456,0.246,0.2462,0.2465,0.2467,0,0.2354,0.2359,0.243,0.2497,0.2538,0.2612,0.265,0.2579,0.2526,0.2616,0.2616,0.2382,0.2273,0.2317,0.2141,0.2118,0.2104,0.2045,0.201,0.2061,0.2107,0.1984,0.1605,0.1602,0.1599,0.1597,0,0,0.233,0.2352,0.2368,0.2396,0.2438,0.2375,0.2343,0.2245,0.2238,0.2122,0.207,0.2191,0.2256,0.1905,0.1854,0.17,0.1872,0.1639,0.2336,0.2349,0.2391,0.2498,0.2368,0,0,0,0,0]},{"header":{"parameterUnit":"m.s-1","parameterCategory":2,"la1":30.2991,"la2":30.254,"lo1":-89.0895,"lo2":-89.0444,"dy":0.0017,"dx":0.0017,"nx":28,"ny":28,"refTime":"2025-04-12T03:00:00:Z","depth":"2","parameterNumber":3,"parameterNumberName":"V-component_of_CURRENTS"},"data":[0,0,0,0,0,0,0,0,0,0,0,0,0,0,0,0,0,0,0,0,0,0,0,0,0,0,0,0,0,0,0,0,0,0,0,0,0,0,0,0,0,0,0,0,0,0,0,0,0,0,0,0,0,0,0,0,0,0,0.0156,0.0155,0,0.0116,0.0115,0.0115,0.0086,0.0085,0.0085,0.0085,0.0041,0.004,0.0039,0,0,0,0,0,0,0,0,0,0,0,0,0,0.0172,0.0172,0.0156,0.0155,0.0155,0.0116,0.0115,0.0115,0.0086,0.0085,0.0085,0.0085,0.0041,0.004,0.0039,0,0,0,0,0,0,0,0,0,0,0,0,0,0.0152,0.0172,0.0156,0.0135,0.0133,0.0116,0.0115,0.0114,0.0086,0.0085,0.0085,0.0085,0.0041,0.004,0.0039,0.0037,0,0,0.0034,0.0034,0,0,0,0,0,0,0,0,0.0153,0.0151,0.0139,0.0137,0.0134,0.0105,0.0105,0.0088,0.0086,0.0104,0.0085,0.0084,0.0062,0.0059,0.0052,0.0035,0.0033,0.0034,0.0033,0.0033,0.0032,0,0,0,0,0,0,0,0.0154,0.0153,0.014,0.0138,0.0136,0.0116,0.0113,0.0101,0.0085,0.0102,0.01,0.0096,0.0061,0.0054,0.0051,0.0032,0.0034,0.0033,0.0032,0.0031,0.0008,0.0008,0,0,0,0,0,0,0.0162,0.0154,0.0141,0.0139,0.0143,0.0117,0.0113,0.0115,0.0085,0.0081,0.0096,0.0094,0.0056,0.0053,0.0049,0.0055,0.0033,0.0031,0.003,0.0008,0.0008,0.0008,0,0,0,0,0,0,0.0162,0.0161,0.0143,0.0145,0.0141,0.0117,0.0119,0.0114,0.0107,0.0081,0.0076,0.0094,0.0056,0.0051,0.004,0.0053,0.0031,0.0029,0.0008,0.0008,0.0008,0.0061,0,0,0,0,0,0,0.0163,0.0162,0.0164,0.0146,0.0141,0.0138,0.0119,0.0114,0.0105,0.0103,0.0077,0.0073,0.0055,0.0042,0.0038,0.0051,0.0028,0.0007,0.0008,0.0008,0.0059,0.0063,0.0067,0,0,0,0,0,0.0164,0.0174,0.0165,0.0163,0.0146,0.0139,0.0135,0.0116,0.0106,0.0108,0.0087,0.0074,0.0042,0.0041,0.0037,0.0049,0.0007,0.0008,0.0008,0.0058,0.0063,0.0067,0,0,0,0,0,0,0.0181,0.0171,0.0161,0.0167,0.0155,0.0134,0.0133,0.012,0.0105,0.0102,0.0076,0.0071,0.0063,0.0048,0.0047,0.0042,0.0023,0.0022,0.0062,0.0066,0.007,0.0096,0.0027,0,0,0,0,0,0.0187,0.0191,0.0176,0.0179,0.0176,0.0155,0.0149,0.0137,0.0121,0.0114,0.0094,0.0075,0.0062,0.0058,0.0039,0.0041,0.0027,0.0045,0.0049,0.0053,0.007,0.0063,0.0068,0.001,0.001,0.001,0,0,0.0193,0.0188,0.019,0.0183,0.0172,0.0182,0.0151,0.0146,0.0154,0.0112,0.0114,0.0085,0.0062,0.006,0.0056,0.0051,0.0057,0.0053,0.0057,0.0073,0.0064,0.007,0.0075,0.0011,0.0011,0.001,0,0,0.0215,0.0206,0.0219,0.0216,0.0206,0.0198,0.02,0.0181,0.0172,0.0167,0.0138,0.0122,0.0099,0.0091,0.0083,0.0099,0.0072,0.0087,0.0136,0.0129,0.0134,0.0138,0.011,0.0112,0.0096,0.0096,0.0096,0,0.0222,0.0241,0.0221,0.0235,0.0243,0.0212,0.0235,0.0222,0.02,0.0203,0.0175,0.0148,0.012,0.0133,0.0131,0.0111,0.0093,0.0122,0.0135,0.014,0.0143,0.0113,0.0115,0.0098,0.0098,0.0098,0.0098,0,0.0257,0.0272,0.0281,0.0295,0.0299,0.0311,0.0299,0.0295,0.0277,0.0267,0.0261,0.0219,0.0209,0.0191,0.0164,0.0179,0.0151,0.0136,0.0128,0.0153,0.0119,0.0119,0.0102,0.0101,0.01,0.01,0,0,0.0275,0.0302,0.0306,0.0331,0.0335,0.0346,0.036,0.0372,0.0397,0.0355,0.0387,0.0336,0.0309,0.0298,0.026,0.0249,0.024,0.0207,0.0205,0.0187,0.0208,0.0163,0.0158,0.0226,0.0227,0.0228,0.0168,0,0.0311,0.0363,0.0363,0.0416,0.0447,0.0433,0.046,0.0463,0.0454,0.0473,0.0426,0.0437,0.0352,0.0356,0.0325,0.0271,0.0246,0.0257,0.0181,0.0178,0.0143,0.016,0.0177,0.0124,0.0168,0.0168,0.0168,0,0.0346,0.0383,0.0444,0.0499,0.0512,0.0535,0.0581,0.0603,0.0613,0.0609,0.0595,0.056,0.0534,0.0466,0.0373,0.0382,0.0299,0.0246,0.0242,0.0188,0.0135,0.0109,0.0123,0.0168,0.0168,0.0168,0.0168,0,0.0383,0.0439,0.0497,0.0514,0.0566,0.059,0.0621,0.0644,0.0692,0.0707,0.0741,0.0682,0.0677,0.057,0.0427,0.0408,0.0326,0.0287,0.0165,0.0159,0.0155,0.0149,0.0227,0.0228,0.0228,0.0228,0.0228,0,0.0427,0.0472,0.052,0.0552,0.0634,0.0648,0.0734,0.0749,0.0809,0.0892,0.082,0.086,0.0705,0.0629,0.048,0.032,0.0358,0.0181,0.015,0.017,0.0166,0.0193,0.019,0.0226,0.0226,0.0226,0.0227,0,0.0461,0.0487,0.0559,0.0625,0.0653,0.0713,0.0819,0.089,0.0925,0.1033,0.1052,0.1006,0.0897,0.072,0.0556,0.0401,0.0253,0.0184,0.0205,0.0176,0.0074,0.0074,0.0048,0.0046,0.0045,0.0044,0.0042,0,0.0485,0.0528,0.0616,0.0671,0.0703,0.0797,0.0878,0.0944,0.1036,0.1124,0.1191,0.1119,0.1064,0.0783,0.052,0.0257,0.0232,0.0104,0.0068,0.0088,0.006,0.0062,0.0065,0.0073,0.0072,0.0071,0.0071,0,0.0549,0.0574,0.0635,0.0746,0.083,0.0947,0.1064,0.115,0.1251,0.1318,0.1384,0.1344,0.1081,0.0811,0.0454,0.0279,0.0144,0.008,0.0123,0.0112,0.0106,0.0079,0.0082,0.0065,0.0066,0.0066,0.0067,0.0067,0.0593,0.0656,0.0739,0.0839,0.0939,0.1085,0.1178,0.1301,0.1432,0.1527,0.1499,0.1424,0.1147,0.0662,0.0379,0.0084,0.009,-0.0017,-0.0012,-0.0007,0.0003,-0.0006,-0.0067,-0.0067,-0.0067,-0.0067,-0.0067,0,0.0665,0.0742,0.0841,0.0965,0.107,0.112,0.1301,0.1381,0.1511,0.1572,0.158,0.1295,0.1003,0.0691,0.0246,-0.0022,-0.0029,-0.0101,-0.0045,-0.0038,-0.0032,-0.002,-0.0098,-0.0099,-0.0099,-0.01,0,0,0.0715,0.083,0.0885,0.1062,0.1141,0.1294,0.1388,0.1479,0.1543,0.1561,0.1514,0.1431,0.1069,0.0745,0.0394,0.0149,0.0115,0.0097,0.0148,0.0262,0.0271,0.0039,0.0066,0,0,0,0,0]}],[{"header":{"parameterUnit":"m.s-1","parameterCategory":2,"la1":30.2991,"la2":30.254,"lo1":-89.0895,"lo2":-89.0444,"dy":0.0017,"dx":0.0017,"nx":28,"ny":28,"refTime":"2025-04-12T03:00:00:Z","depth":"4","parameterNumber":2,"parameterNumberName":"U-component_of_CURRENTS"},"data":[0,0,0,0,0,0,0,0,0,0,0,0,0,0,0,0,0,0,0,0,0,0,0,0,0,0,0,0,0,0,0,0,0,0,0,0,0,0,0,0,0,0,0,0,0,0,0,0,0,0,0,0,0,0,0,0,0,0,0.1348,0.1349,0,0.1399,0.14,0.14,0.1444,0.1445,0.1445,0.1446,0.1509,0.151,0.1511,0,0,0,0,0,0,0,0,0,0,0,0,0,0.13,0.13,0.1348,0.1349,0.135,0.1399,0.14,0.1401,0.1444,0.1445,0.1445,0.1446,0.1508,0.1509,0.1511,0,0,0,0,0,0,0,0,0,0,0,0,0,0.1331,0.13,0.1348,0.1378,0.1382,0.1399,0.14,0.1401,0.1444,0.1445,0.1446,0.1446,0.1508,0.1509,0.1511,0.1503,0,0,0.1516,0.1517,0,0,0,0,0,0,0,0,0.1329,0.1333,0.1373,0.1376,0.138,0.1418,0.1406,0.1436,0.1444,0.1419,0.1446,0.1447,0.1479,0.1483,0.1489,0.1506,0.1508,0.1516,0.1517,0.1518,0.1518,0,0,0,0,0,0,0,0.1327,0.1331,0.1367,0.1374,0.1378,0.1394,0.1399,0.1412,0.1442,0.1421,0.1425,0.1432,0.1481,0.1487,0.1491,0.1509,0.1516,0.1518,0.1519,0.1519,0.1603,0.1605,0,0,0,0,0,0,0.1322,0.1329,0.1365,0.1369,0.1358,0.1394,0.14,0.1403,0.1442,0.1449,0.1431,0.1434,0.1484,0.1489,0.1493,0.1543,0.1518,0.1519,0.152,0.1602,0.1604,0.1605,0,0,0,0,0,0,0.1321,0.1325,0.1363,0.1351,0.1358,0.1394,0.1398,0.1404,0.1437,0.145,0.1457,0.1461,0.1485,0.1491,0.1529,0.1543,0.152,0.1522,0.1601,0.1603,0.1604,0.1605,0,0,0,0,0,0,0.1319,0.1324,0.1342,0.1351,0.1358,0.1386,0.1397,0.1404,0.1439,0.1444,0.1477,0.1482,0.1486,0.1527,0.1531,0.1545,0.1523,0.1599,0.1602,0.1604,0.1604,0.1607,0.161,0,0,0,0,0,0.1317,0.1332,0.1342,0.1348,0.1376,0.1387,0.1392,0.142,0.144,0.1453,0.1482,0.1483,0.1545,0.1529,0.1533,0.1549,0.1598,0.1601,0.1604,0.1602,0.1606,0.161,0,0,0,0,0,0,0.1323,0.1338,0.135,0.137,0.1384,0.1395,0.1417,0.1433,0.1466,0.1482,0.1495,0.1502,0.1543,0.155,0.1532,0.1583,0.1573,0.1577,0.157,0.1574,0.1577,0.1613,0.1524,0,0,0,0,0,0.133,0.1347,0.1358,0.1378,0.1385,0.1406,0.1422,0.1438,0.1461,0.1478,0.1507,0.1536,0.1553,0.1568,0.159,0.1612,0.164,0.1629,0.1632,0.1634,0.1668,0.1713,0.1724,0.1614,0.1614,0.1614,0,0,0.1337,0.135,0.136,0.1381,0.1395,0.1409,0.1418,0.1445,0.1468,0.1478,0.1535,0.1553,0.1565,0.1594,0.1612,0.1602,0.1676,0.1637,0.1639,0.1673,0.1718,0.1728,0.1738,0.1616,0.1616,0.1616,0,0,0.1349,0.137,0.1384,0.1396,0.1423,0.1432,0.1444,0.1473,0.15,0.1544,0.1557,0.16,0.1628,0.1645,0.1651,0.1689,0.1695,0.1683,0.1721,0.1763,0.1773,0.1782,0.1813,0.1824,0.1679,0.1679,0.1679,0,0.1361,0.1373,0.1391,0.1405,0.1417,0.1443,0.1456,0.1482,0.1528,0.1557,0.1571,0.1647,0.166,0.169,0.1704,0.1698,0.1715,0.1697,0.1767,0.1776,0.1785,0.1815,0.1828,0.1679,0.1679,0.1679,0.1679,0,0.1368,0.139,0.1398,0.1422,0.1442,0.1454,0.1484,0.1527,0.1568,0.1598,0.1665,0.1695,0.1744,0.1742,0.1736,0.1794,0.1783,0.1766,0.1754,0.1796,0.1825,0.1838,0.168,0.168,0.168,0.1679,0,0,0.1363,0.1395,0.1403,0.1418,0.1449,0.1465,0.151,0.1552,0.1604,0.1659,0.1726,0.1765,0.1801,0.1815,0.1813,0.1851,0.1919,0.1837,0.1839,0.1863,0.2006,0.1848,0.1847,0.1902,0.1904,0.1907,0.1993,0,0.1363,0.1381,0.1405,0.1438,0.1443,0.1486,0.1526,0.1578,0.1639,0.1716,0.1761,0.1832,0.1816,0.1856,0.1887,0.1927,0.1958,0.1898,0.1968,0.1971,0.1821,0.1859,0.1916,0.2003,0.2006,0.2008,0.201,0,0.1358,0.1371,0.139,0.144,0.1452,0.1491,0.1572,0.1616,0.1714,0.1762,0.1838,0.189,0.1972,0.1953,0.2045,0.2003,0.2016,0.2035,0.2038,0.1909,0.1838,0.1959,0.2034,0.2032,0.203,0.2029,0.2027,0,0.132,0.1367,0.1381,0.1393,0.1451,0.1499,0.1551,0.1643,0.1698,0.1821,0.1883,0.197,0.2045,0.2086,0.2125,0.2102,0.2211,0.2179,0.2047,0.2036,0.2152,0.2142,0.2246,0.2246,0.2246,0.2245,0.2245,0,0.128,0.1302,0.138,0.1382,0.1434,0.1498,0.1584,0.1643,0.1758,0.182,0.1919,0.1985,0.2088,0.2152,0.2162,0.214,0.2241,0.2077,0.2053,0.2147,0.2136,0.216,0.2149,0.2249,0.2248,0.2247,0.2247,0,0.1219,0.1257,0.1293,0.1377,0.141,0.1461,0.159,0.1653,0.1766,0.1857,0.1907,0.2039,0.212,0.2179,0.2262,0.2181,0.2186,0.2144,0.225,0.2228,0.1977,0.1966,0.2029,0.2024,0.202,0.2017,0.2014,0,0.1173,0.1186,0.1284,0.1304,0.1348,0.144,0.1494,0.1633,0.169,0.1865,0.1886,0.2036,0.2095,0.2093,0.2157,0.216,0.2119,0.2102,0.2037,0.1987,0.1959,0.1954,0.1947,0.2008,0.2007,0.2005,0.2004,0,0.1096,0.1156,0.1178,0.123,0.1295,0.1359,0.145,0.1494,0.1644,0.1766,0.1836,0.1893,0.1967,0.2019,0.2022,0.2016,0.2108,0.206,0.2067,0.2007,0.1962,0.1937,0.1936,0.1991,0.1993,0.1994,0.1995,0,0.1051,0.1052,0.1099,0.1143,0.1222,0.1261,0.1323,0.1397,0.1484,0.1669,0.1695,0.1831,0.196,0.1944,0.1952,0.193,0.1901,0.1824,0.1844,0.186,0.1757,0.1673,0.161,0,0,0,0,0,0.0997,0.0981,0.1,0.1044,0.1132,0.1182,0.1279,0.1347,0.1509,0.1511,0.1598,0.1658,0.1705,0.1783,0.1725,0.1862,0.1895,0.1784,0.1814,0.1914,0.193,0.182,0,0,0,0,0,0,0.0951,0.0958,0.096,0.098,0.1006,0.1086,0.1158,0.1247,0.1253,0.1412,0.1452,0.1555,0.1627,0.173,0.1701,0.1715,0.1694,0.1863,0.1858,0.1904,0.1919,0.1932,0.1824,0,0,0,0,0]},{"header":{"parameterUnit":"m.s-1","parameterCategory":2,"la1":30.2991,"la2":30.254,"lo1":-89.0895,"lo2":-89.0444,"dy":0.0017,"dx":0.0017,"nx":28,"ny":28,"refTime":"2025-04-12T03:00:00:Z","depth":"4","parameterNumber":3,"parameterNumberName":"V-component_of_CURRENTS"},"data":[0,0,0,0,0,0,0,0,0,0,0,0,0,0,0,0,0,0,0,0,0,0,0,0,0,0,0,0,0,0,0,0,0,0,0,0,0,0,0,0,0,0,0,0,0,0,0,0,0,0,0,0,0,0,0,0,0,0,0.0174,0.0174,0,0.0156,0.0156,0.0156,0.015,0.015,0.015,0.015,0.0136,0.0136,0.0136,0,0,0,0,0,0,0,0,0,0,0,0,0,0.0176,0.0176,0.0174,0.0174,0.0174,0.0156,0.0156,0.0156,0.015,0.015,0.015,0.015,0.0137,0.0136,0.0136,0,0,0,0,0,0,0,0,0,0,0,0,0,0.0168,0.0176,0.0174,0.0169,0.0168,0.0156,0.0156,0.0156,0.015,0.015,0.015,0.015,0.0137,0.0136,0.0135,0.0129,0,0,0.0133,0.0133,0,0,0,0,0,0,0,0,0.0169,0.0168,0.017,0.0169,0.0168,0.0156,0.0152,0.0147,0.015,0.0157,0.015,0.0151,0.0143,0.0142,0.0138,0.0128,0.0127,0.0133,0.0133,0.0133,0.0132,0,0,0,0,0,0,0,0.0169,0.0169,0.0167,0.0169,0.0169,0.0158,0.0157,0.015,0.0149,0.0156,0.0156,0.0154,0.0143,0.0139,0.0138,0.0127,0.0133,0.0133,0.0132,0.0132,0.0123,0.0123,0,0,0,0,0,0,0.0173,0.017,0.0167,0.0166,0.0169,0.0158,0.0157,0.0159,0.0149,0.0148,0.0154,0.0154,0.014,0.0139,0.0137,0.0149,0.0133,0.0132,0.0132,0.0123,0.0123,0.0123,0,0,0,0,0,0,0.0173,0.0173,0.0168,0.0167,0.0166,0.0158,0.016,0.0159,0.0159,0.0148,0.0146,0.0156,0.014,0.0138,0.0136,0.0148,0.0132,0.0131,0.0123,0.0123,0.0123,0.016,0,0,0,0,0,0,0.0174,0.0174,0.0178,0.0168,0.0166,0.0168,0.016,0.0159,0.0158,0.0157,0.0149,0.0148,0.014,0.0137,0.0135,0.0147,0.0131,0.0122,0.0123,0.0123,0.0158,0.0161,0.0163,0,0,0,0,0,0.0174,0.018,0.0178,0.0178,0.0172,0.0168,0.0167,0.0161,0.0158,0.0161,0.0154,0.0148,0.0138,0.0137,0.0135,0.0146,0.0122,0.0123,0.0123,0.0157,0.016,0.0163,0,0,0,0,0,0,0.0182,0.018,0.0178,0.0183,0.0179,0.0167,0.0169,0.0164,0.016,0.0161,0.0149,0.0147,0.015,0.014,0.0139,0.0143,0.0129,0.0129,0.0156,0.0159,0.0162,0.0166,0.013,0,0,0,0,0,0.0186,0.0192,0.0185,0.019,0.0189,0.0179,0.0177,0.0174,0.0168,0.0167,0.0159,0.0152,0.0148,0.0148,0.0141,0.0143,0.0115,0.0148,0.0151,0.0153,0.0155,0.0116,0.0115,0.0124,0.0124,0.0124,0,0,0.019,0.019,0.0193,0.0192,0.0188,0.0196,0.0179,0.018,0.0187,0.0166,0.0173,0.0161,0.015,0.0153,0.0154,0.0148,0.0135,0.0154,0.0156,0.0157,0.0116,0.0115,0.0115,0.0125,0.0124,0.0124,0,0,0.0203,0.0202,0.0212,0.0213,0.0212,0.0208,0.0211,0.0203,0.02,0.0202,0.019,0.0182,0.0178,0.0171,0.0168,0.0179,0.0149,0.018,0.02,0.0163,0.0162,0.016,0.012,0.0115,0.0183,0.0183,0.0183,0,0.0208,0.0223,0.0214,0.0225,0.0233,0.0218,0.0234,0.0228,0.0221,0.022,0.0211,0.0195,0.0186,0.0187,0.0194,0.0186,0.0157,0.0191,0.0166,0.0164,0.0162,0.0121,0.0115,0.0185,0.0185,0.0185,0.0185,0,0.0229,0.0245,0.0251,0.0266,0.027,0.0281,0.0275,0.0275,0.0269,0.0261,0.0254,0.0233,0.0224,0.022,0.0213,0.0201,0.0182,0.0172,0.0159,0.0163,0.012,0.0112,0.0188,0.0187,0.0187,0.0186,0,0,0.0235,0.0262,0.0266,0.0287,0.0295,0.0304,0.0313,0.0318,0.0326,0.0305,0.0304,0.0291,0.0271,0.0266,0.0248,0.0218,0.0179,0.0195,0.0192,0.0156,0.009,0.0084,0.0075,0.0163,0.0162,0.0161,0.0064,0,0.0258,0.0297,0.0301,0.0342,0.0365,0.0359,0.0371,0.0371,0.0362,0.0354,0.0318,0.0316,0.0292,0.029,0.0253,0.0201,0.0162,0.0206,0.009,0.0086,0.0081,0.0067,0.0158,0.0058,0.0057,0.0055,0.0055,0,0.0279,0.0307,0.0352,0.0393,0.0401,0.0421,0.0441,0.0454,0.0433,0.042,0.0395,0.0366,0.0327,0.0301,0.0201,0.023,0.0164,0.0114,0.0109,0.0086,0.0067,0.0052,0.0041,0.0042,0.0043,0.0044,0.0045,0,0.0297,0.0343,0.0386,0.04,0.0438,0.0456,0.0477,0.0476,0.0497,0.0466,0.0464,0.0402,0.038,0.0285,0.0185,0.0193,0.0058,0.0055,-0.0019,-0.0021,-0.0002,0.0001,-0.0028,-0.0028,-0.0028,-0.0028,-0.0027,0,0.0323,0.0359,0.0403,0.0428,0.0485,0.0495,0.0547,0.0545,0.0551,0.0572,0.0508,0.0496,0.0375,0.0287,0.0185,0.0058,0.0053,-0.0022,-0.0047,0.0015,0.0021,-0.0008,-0.0004,-0.0031,-0.003,-0.003,-0.0029,0,0.0343,0.0367,0.0423,0.0474,0.0499,0.0541,0.0611,0.0646,0.0635,0.0654,0.0648,0.0569,0.0454,0.0316,0.0158,0.0072,-0.0057,-0.0104,-0.0034,-0.0053,-0.0111,-0.0105,-0.019,-0.0191,-0.0192,-0.0192,-0.0193,0,0.0356,0.0389,0.0463,0.0506,0.0538,0.0608,0.0662,0.0688,0.0717,0.0698,0.0698,0.0604,0.0529,0.0298,0.0149,-0.0065,-0.009,-0.0162,-0.013,-0.0112,-0.0129,-0.012,-0.0113,-0.0195,-0.0195,-0.0195,-0.0195,0,0.0391,0.0416,0.0463,0.0552,0.0619,0.0695,0.076,0.0786,0.0804,0.0799,0.0743,0.0626,0.0486,0.0307,0.0134,-0.0016,-0.0117,-0.0172,-0.017,-0.0141,-0.0119,-0.0132,-0.0124,-0.0198,-0.0198,-0.0198,-0.0197,0,0.0415,0.0453,0.0515,0.0594,0.0679,0.0746,0.0783,0.0812,0.0841,0.0808,0.079,0.0637,0.0556,0.0331,0.0172,0.0021,-0.0007,-0.0049,-0.0055,-0.0053,0.0017,0.0066,0.0018,0,0,0,0,0,0.0434,0.0482,0.0557,0.0634,0.0717,0.0766,0.0834,0.0856,0.0869,0.0841,0.0816,0.0685,0.0458,0.0359,0.0208,0.015,-0.0042,-0.0032,-0.0094,-0.0215,-0.0212,-0.0153,0,0,0,0,0,0,0.045,0.0517,0.0557,0.0656,0.0713,0.0804,0.0847,0.0855,0.0831,0.0819,0.0703,0.0649,0.0427,0.0545,0.0206,0.016,0.01,-0.0137,-0.014,-0.0217,-0.0214,-0.0211,-0.015,0,0,0,0,0]}]]